Location: Praha
(50.0830°N, 14.4670°E)
Time: 02:10:57
(UTC+02:00)

ISS - Pass Details

Date: 12 May 2024
Orbit: 409 x 414 km, 51.6° (Epoch: 23 May)

Event Time Altitude Azimuth Distance (km) Brightness Sun altitude
Rises 23:33:57 0° 264° (W) 2,347 0.2 -19.0°
Reaches altitude 10° 23:36:03 10° 267° (W) 1,485 -0.8 -19.1°
Maximum altitude 23:39:22 70° 351° (N) 443 -3.6 -19.3°
Enters shadow 23:41:45 18° 74° (ENE) 1,107 -1.7 -19.4°
